(211745) = 2003 YO153

Discovered at Catalina on 2003-12-29 by CSS.

Orbit

Orbit type: Main Belt

Note: WebGL enabled browser required.

epoch2023-09-13.0
epoch JD2460200.5
perihelion date2022-02-08.43139
perihelion JD2459618.93139
argument of perihelion (°)46.16398
ascending node (°)75.51813
inclination (°)16.79178
eccentricity0.1915702
perihelion distance (AU)2.2047233
Tisserand w.r.t. Jupiter3.3
ΔV w.r.t. Earth (km/sec)10.6
semimajor axis (AU)2.7271674
mean anomaly (°)127.27324
mean daily motion (°/day)0.21884480
aphelion distance (AU)3.250
period (years)4.5
P-vector [x]-0.49542662
P-vector [y]0.69080622
P-vector [z]0.52663008
Q-vector [x]-0.82238180
Q-vector [y]-0.56823291
Q-vector [z]-0.02827603
absolute magnitude16.07
phase slope0.15
uncertainty0
referenceMPEC 2023-N24
observations used520
oppositions13
arc length (days)7130
first opposition used2003
last opposition used2023
residual rms (arc-secs)0.72
perturbers coarse indicatorM-v
perturbers precise indicator003Ek
first observation date used2003-12-29.0
last observation date used2023-07-07.0
computer nameMPCLINUX
JD of orbit computation2456847.780542
perihelion JD uncertainty (days)7.8246E-05
argument of perihelion uncertainty (°)2.6155E-05
ascending node uncertainty (°)1.6764E-05
inclination uncertainty (°)7.5600E-06
eccentricity uncertainty 6.5155E-08
perihelion distance uncertainty (AU)1.7465E-07
Minimum Orbit Intersection Distances (in AU)
for orbit epoch: 2460000.5, reference: E2023-N24
Mercury1.87988
Venus1.50074
Earth1.25267
Mars0.65204
Jupiter2.03522
Saturn6.66684
Uranus16.0501
Neptune26.99

Observations

530 total observations over interval: 2003 12 29.27787 – 2023 07 07.356646
These data are available for download (format description).

Date (UT) J2000 RA J2000 Dec Magn Location Ref
2003 12 29.27787 08 29 12.40 +36 14 01.7 19.2 V 703 – Catalina Sky Survey MPS 96426
2003 12 29.29157 08 29 11.86 +36 14 13.2 18.9 V 703 – Catalina Sky Survey MPS 96426
2003 12 29.30546 08 29 11.44 +36 14 23.5 19.2 V 703 – Catalina Sky Survey MPS 96426
2003 12 29.31970 08 29 10.81 +36 14 37.8 18.5 V 703 – Catalina Sky Survey MPS 96426
2003 12 29.34539 08 29 09.91 +36 14 56.4 19.1   704 – Lincoln Laboratory ETS, New Mexico MPS 96426
2003 12 29.35903 08 29 09.38 +36 15 08.9 19.5   704 – Lincoln Laboratory ETS, New Mexico MPS 96426
2003 12 29.37247 08 29 08.93 +36 15 19.7 19.2   704 – Lincoln Laboratory ETS, New Mexico MPS 96426
2003 12 29.38599 08 29 08.39 +36 15 31.0 19.2   704 – Lincoln Laboratory ETS, New Mexico MPS 96426
2003 12 29.39988 08 29 07.90 +36 15 42.3 19.3   704 – Lincoln Laboratory ETS, New Mexico MPS 96426
2004 01 02.26512 08 26 38.85 +37 08 28.6 18.8   704 – Lincoln Laboratory ETS, New Mexico MPS 96426
2004 01 02.28931 08 26 37.84 +37 08 49.1 18.7   704 – Lincoln Laboratory ETS, New Mexico MPS 96426
2004 01 02.32346 08 26 36.26 +37 09 16.8 19.1   704 – Lincoln Laboratory ETS, New Mexico MPS 96426
2004 02 10.24835 07 49 34.02 +42 51 58.8 19.4   704 – Lincoln Laboratory ETS, New Mexico MPS 100110
2004 02 10.26022 07 49 33.41 +42 52 00.3 19.1   704 – Lincoln Laboratory ETS, New Mexico MPS 100110
2004 02 10.27263 07 49 32.75 +42 52 01.8 19.5   704 – Lincoln Laboratory ETS, New Mexico MPS 100110
2004 02 14.23358 07 46 53.16 +42 59 03.3 19.7 V 703 – Catalina Sky Survey MPS 100110
2004 02 14.24544 07 46 52.78 +42 59 04.7 19.5 V 703 – Catalina Sky Survey MPS 100110
2004 02 14.25730 07 46 52.28 +42 59 05.6 19.3 V 703 – Catalina Sky Survey MPS 100110
2004 02 14.26888 07 46 51.79 +42 59 05.7 19.1 V 703 – Catalina Sky Survey MPS 100110
2005 06 27.23753 16 00 09.07 -19 17 48.0 20.3 V G96 – Mt. Lemmon Survey MPS 240695
2005 06 27.24299 16 00 08.85 -19 17 49.4 20.6 V G96 – Mt. Lemmon Survey MPS 240695
2005 06 27.24841 16 00 08.60 -19 17 50.7 19.9 V G96 – Mt. Lemmon Survey MPS 240695
2005 06 27.25384 16 00 08.42 -19 17 51.4 19.8 V G96 – Mt. Lemmon Survey MPS 240695
2007 10 19.31947 03 18 41.84 +01 42 23.9 20.1   704 – Lincoln Laboratory ETS, New Mexico MPS 244658
2007 10 19.33013 03 18 41.27 +01 42 22.3 20.4   704 – Lincoln Laboratory ETS, New Mexico MPS 244658
2007 10 19.34080 03 18 40.80 +01 42 22.2 20.3   704 – Lincoln Laboratory ETS, New Mexico MPS 244658
2007 10 19.34258 03 18 40.82 +01 42 21.7 20.5 V 703 – Catalina Sky Survey MPS 226838
2007 10 19.35069 03 18 40.32 +01 42 21.6 19.7 V 703 – Catalina Sky Survey MPS 226838
2007 10 19.35887 03 18 39.92 +01 42 20.3 19.3 V 703 – Catalina Sky Survey MPS 226838
2007 10 19.36698 03 18 39.56 +01 42 19.8 19.2 V 703 – Catalina Sky Survey MPS 226838
2007 10 31.29872 03 08 04.63 +01 36 48.9 19.6 V 703 – Catalina Sky Survey MPS 226838
2007 10 31.30866 03 08 04.09 +01 36 48.9 20.3 V 703 – Catalina Sky Survey MPS 226838
2007 10 31.32402 03 08 03.04 +01 36 49.5 19.8 V 703 – Catalina Sky Survey MPS 226838
2007 10 31.34550 03 08 01.78 +01 36 49.5 19.4 V 703 – Catalina Sky Survey MPS 226838
2007 11 07.24399 03 00 58.42 +01 41 33.4 19.2 V 703 – Catalina Sky Survey MPS 226838
2007 11 07.25360 03 00 57.78 +01 41 34.8 19.6 V 703 – Catalina Sky Survey MPS 226838
2007 11 07.26323 03 00 57.13 +01 41 34.9 19.4 V 703 – Catalina Sky Survey MPS 226838
2007 11 07.27285 03 00 56.52 +01 41 35.7 19.1 V 703 – Catalina Sky Survey MPS 226838
2007 11 15.20699 02 52 34.24 +01 56 16.3 19.2 V 703 – Catalina Sky Survey MPS 228265
2007 11 15.21294 02 52 33.78 +01 56 18.6 19.2 V 703 – Catalina Sky Survey MPS 228265
2007 11 15.21892 02 52 33.42 +01 56 17.8 19.5 V 703 – Catalina Sky Survey MPS 228265
2007 11 15.22491 02 52 33.06 +01 56 19.3 19.3 V 703 – Catalina Sky Survey MPS 228265
2007 12 06.11447 02 33 32.50 +03 27 01.6 19.6 V 703 – Catalina Sky Survey MPS 229791
2007 12 06.12104 02 33 32.25 +03 27 05.0 19.6 V 703 – Catalina Sky Survey MPS 229791
2007 12 06.12745 02 33 32.00 +03 27 07.5 19.7 V 703 – Catalina Sky Survey MPS 229791
2007 12 06.13389 02 33 31.64 +03 27 10.6 20.1 V 703 – Catalina Sky Survey MPS 229791
2009 02 28.45351 14 05 50.97 +11 57 12.1   291 – LPL/Spacewatch II MPS 278613
2009 02 28.45742 14 05 50.92 +11 57 13.4   291 – LPL/Spacewatch II MPS 278613
2009 02 28.46138 14 05 50.88 +11 57 14.7   291 – LPL/Spacewatch II MPS 278613
2009 03 17.31837 13 59 19.71 +13 30 24.6 19.5   704 – Lincoln Laboratory ETS, New Mexico MPS 280052
2009 03 17.33026 13 59 19.20 +13 30 28.2 19.4   704 – Lincoln Laboratory ETS, New Mexico MPS 280052
2009 03 17.35405 13 59 18.26 +13 30 36.2 19.6   704 – Lincoln Laboratory ETS, New Mexico MPS 280052
2009 03 18.36126 13 58 39.50 +13 35 47.7 19.5 V 703 – Catalina Sky Survey MPS 281251
2009 03 18.37415 13 58 39.00 +13 35 51.7 19.5 V 703 – Catalina Sky Survey MPS 281251
2009 03 18.38693 13 58 38.49 +13 35 55.5 19.6 V 703 – Catalina Sky Survey MPS 281251
2009 03 18.39975 13 58 37.92 +13 35 59.6 19.4 V 703 – Catalina Sky Survey MPS 281251
2009 03 28.35256 13 50 59.10 +14 20 30.3 19.3 V 703 – Catalina Sky Survey MPS 282522
2009 03 28.35806 13 50 58.84 +14 20 31.5 19.2 V 703 – Catalina Sky Survey MPS 282522
2009 03 28.36355 13 50 58.52 +14 20 33.5 19.1 V 703 – Catalina Sky Survey MPS 282522
2009 03 28.36906 13 50 58.20 +14 20 34.5 19.5 V 703 – Catalina Sky Survey MPS 282522
2011 09 17.45501 00 17 55.544 -25 11 34.59 20.2 i F51 – Pan-STARRS 1, Haleakala MPS 392395
2011 09 17.46641 00 17 54.906 -25 11 38.24 20.1 i F51 – Pan-STARRS 1, Haleakala MPS 392395
2012 11 01.551172 08 02 45.065 +26 30 06.93 20.1 i F51 – Pan-STARRS 1, Haleakala MPS 441278
2012 11 01.554486 08 02 45.290 +26 30 08.07 20.1 i F51 – Pan-STARRS 1, Haleakala MPS 441278
2012 11 19.34809 08 19 35.92 +28 36 10.6 19.3 R 850 – Cordell-Lorenz Observatory, Sewanee MPS 445767
2012 11 19.36303 08 19 36.55 +28 36 19.8 19.7 R 850 – Cordell-Lorenz Observatory, Sewanee MPS 445767
2012 11 19.37798 08 19 37.16 +28 36 26.7 18.4 R 850 – Cordell-Lorenz Observatory, Sewanee MPS 445767
2012 12 09.31365 08 27 59.65 +32 05 18.7 19.5 V 703 – Catalina Sky Survey MPS 447504
2012 12 09.31811 08 27 59.68 +32 05 21.8 19.2 V 703 – Catalina Sky Survey MPS 447504
2012 12 09.32269 08 27 59.72 +32 05 24.7 19.7 V 703 – Catalina Sky Survey MPS 447504
2012 12 09.32729 08 27 59.76 +32 05 29.0 19.3 V 703 – Catalina Sky Survey MPS 447504
2012 12 22.53798 08 25 49.768 +34 58 19.62 19.2 w F51 – Pan-STARRS 1, Haleakala MPS 448704
2012 12 22.55207 08 25 49.374 +34 58 31.12 19.2 w F51 – Pan-STARRS 1, Haleakala MPS 448704
2012 12 22.58017 08 25 48.595 +34 58 53.95 19.2 w F51 – Pan-STARRS 1, Haleakala MPS 448704
2013 01 03.23905 08 18 38.34 +37 36 52.3 18.9 V 703 – Catalina Sky Survey MPS 449478
2013 01 03.24603 08 18 37.94 +37 36 58.1 18.9 V 703 – Catalina Sky Survey MPS 449478
2013 01 03.25285 08 18 37.69 +37 37 03.4 18.8 V 703 – Catalina Sky Survey MPS 449478
2013 01 03.25968 08 18 37.26 +37 37 08.6 18.8 V 703 – Catalina Sky Survey MPS 449478
2013 01 09.27347 08 13 17.27 +38 53 32.6 19.0   704 – Lincoln Laboratory ETS, New Mexico MPS 450711
2013 01 09.28641 08 13 16.43 +38 53 42.2 19.0   704 – Lincoln Laboratory ETS, New Mexico MPS 450711
2013 01 09.29948 08 13 15.67 +38 53 51.6 19.2   704 – Lincoln Laboratory ETS, New Mexico MPS 450711
2013 01 09.31287 08 13 14.80 +38 54 02.9 19.5   704 – Lincoln Laboratory ETS, New Mexico MPS 450711
2013 01 09.32571 08 13 14.07 +38 54 11.5 19.3   704 – Lincoln Laboratory ETS, New Mexico MPS 450711
2013 01 15.21469 08 07 16.50 +40 01 34.3 18.6 V 703 – Catalina Sky Survey MPS 452054
2013 01 15.22010 08 07 16.10 +40 01 38.3 18.6 V 703 – Catalina Sky Survey MPS 452054
2013 01 15.22554 08 07 15.78 +40 01 41.0 18.6 V 703 – Catalina Sky Survey MPS 452054
2013 01 15.23095 08 07 15.42 +40 01 45.4 18.8 V 703 – Catalina Sky Survey MPS 452054
2013 01 18.58993 08 03 40.28 +40 35 54.9 18.8 R D29 – Purple Mountain Observatory, XuYi Station MPS 453057
2013 01 18.60746 08 03 39.09 +40 36 05.1 18.8 R D29 – Purple Mountain Observatory, XuYi Station MPS 453057
2013 01 18.62431 08 03 37.93 +40 36 14.9 18.8 R D29 – Purple Mountain Observatory, XuYi Station MPS 453057
2013 01 22.20977 07 59 45.96 +41 08 45.1 18.6 V 703 – Catalina Sky Survey MPS 453057
